Погода в Меренге

Россия / Магаданская область     61°53′30″N   156°07′56″E
В апреле 2022 года жителям России запретили посещать сайт meteo.paraplan.net по решению Генеральной прокуратуры. Аудитория сайта уменьшилась в 10 раз. Владельцы сайта не видят смысла в поддержке погодного сервера в таких условиях. Сайт будет закрыт в октябре.
темп.,
°C
ветер,
м/с
пор.,
м/с
влажн.,
%
обл.,
%
осадки,
мм/ч
давл.,
гПа
погр.,
м
6 октября, чт
чт623:00−7зсз2297100 5.3 98361
02:00−9зюз2297100 1.3 984106
05:00−12з1197100 1.6 98612
08:00−13зсз1197100 0.1 98812
11:00−10зсз248299 0.1 989585
14:00−9зсз5879100 0.1 9901207
17:00−11сз3588100 0.2 993101
20:00−14зсз228996 0.0 99627
7 октября, пт
пт723:00−13зсз2290100 0.1 99839
02:00−12зсз2291100 0.1 100043
05:00−12сз2294100 0.1 100318
08:00−12ссз2294100 0.0 100529
11:00−8сз3685100 0.0 1007549
14:00−7ссз3580100 0.0 1009740
17:00−9с2290100 0.1 101133
20:00−12ссв2294100 0.0 101422
8 октября, сб
сб823:00−13ссв2295100 0.0 101613
02:00−15св219696 0.0 101710
05:00−17св119854 0.0 10199
08:00−17св119788 0.0 10199
11:00−11юз118796 0.0 101767
14:00−8ююз1282100 0.0 1016117
17:00−13юв228695 0.0 101710
20:00−15юв228283 0.0 101810
9 октября, вс
вс923:00−16юв118229 0.0 101810
02:00−17всв11845 0.0 10189
05:00−18вюв11865 0.0 10189
08:00−17св11865 0.0 10189
11:00−10с11730 0.0 101648
14:00−7с11770 0.0 101462
17:00−13св11831 0.0 101510
20:00−17св21812 0.0 10179
10 октября, пн
пн1023:00−19св22802 0.0 10179
02:00−19ссв228411 0.0 10179
05:00−20ссв229030 0.0 101811
08:00−19ссв329231 0.0 101719
11:00−13с33875 0.0 1016106
14:00−11с338624 0.0 1016142
17:00−15ссв329141 0.0 101815
20:00−18ссв339690 0.0 102119